STARLINK-11263, 60725

Orbit data source: Space-Track

STARLINK-11263, 60725 is a payload satellite owned by SpaceX/Seattle (US) in LEO that was launched on Wed, 28 Aug 2024 UTC via an FALCON 9 launch vehicle from the Air Force Eastern Test Range (AFETR). Payload-class satellites include a variety of spacecraft equipped with specific instruments for various scientific and technological missions. These include communications satellites like Starlink; space stations such as the ISS; scientific satellites like the Hubble; Earth observation satellites from companies like Planet Labs, Umbra, and HawkEye 360; GPS; miniature CubeSats for education and research; and military/defense satellites.

Loading next visibility...
Identifier
60725, 2024-152F
Orbit
LEO
Country
Flag of USUS
Related business
Manufacturer
SpaceX/Seattle
Mission
Operational Commercial Communications
Bus & Motor
STARLINK V2M, Unknown motor
Mass
730 kg wet, ~700 kg dry
Launch date (UTC)
2024-08-28 (1 year ago)
Launch vehicle
FALCON 9
Launch site
Air Force Eastern Test Range (AFETR)
Object type
Payload
Rocket body
Debris
Shape & HBR
Box + 2 Pan, 14.5 m
Radar Cross Section
36.964 m², Large (>1 m²)

Expand to show TLE details & history
Last TLE update: 22 hours ago

TLE from 22 hours ago
0 STARLINK-11263
1 60725U 24152F   25242.54817508 -.00000104  00000-0  39967-5 0  9992
2 60725  53.1584 338.5513 0001004  81.5551 278.5581 15.69708484 58816
Epoch: 2025-08-30T13:09Z
TLE epoch observation values (Epoch: 2025-08-30T13:09:22.326Z)
Latitude
-0.00002°
Longitude
162.22737°
Altitude
360.545 km
Speed
7.694 km/s
True Right ascension
22h 34m 12s
True Declination
0° 00' 00"
Sunlit
Object was in full shadow at epoch
Visualization orbit readout
Latitude
Unknown
Longitude
Unknown
Altitude
Unknown
Speed
Unknown
Apparent Right ascension
Unknown
Apparent Declination
Unknown
Sunlit
N/A
Visualization observer readout
Local Sidereal Time
03:04:29
Azimuth
Unknown
Elevation
Unknown
Doppler factor
Unknown
Orbital elements
Apogee altitude
360.669 km
Perigee altitude
359.316 km
Semi-major axis
6,738.129 km
Eccentricity
0.0001
Inclination
53.1584°
RAAN
338.5513°
Arg. of periapsis
81.5551°
True anomaly
278.54672°
Mean anomaly
278.5581°
Eccentric anomaly
278.55241°
Mean motion
3.92405 °/min
Orbital period
91.74 mins
BSTAR
0.0000039967
Loading maneuver chart data...
Computing Atmospheric mass density...
Loading historical data...
Loading historical data...
Loading historical data...
Loading historical data...
Loading historical data...
Loading historical data...
Loading historical data...

Documentation

Showing up to 5 results
|